Location: ??????????
(54.7560°N, 39.1389°E)
Time: 06:15:17
(UTC+00:00)

NOSS 3-2 (C) - Pass Details

Date: 19 May 2025
Orbit: 686 x 1523 km, 63.4° (Epoch: 04 June)

Event Time Altitude Azimuth Distance (km) Brightness Sun altitude
Rises 21:07:30 0° 304° (NW) 3,629 7.0 -15.2°
Reaches altitude 10° 21:09:54 10° 308° (NW) 2,791 6.5 -15.2°
Maximum altitude 21:16:31 60° 28° (NNE) 1,324 4.5 -15.3°
Drops below altitude 10° 21:24:38 10° 108° (ESE) 3,394 6.1 -15.3°
Sets 21:27:49 0° 112° (ESE) 4,466 6.7 -15.3°
